GFSFLT1_prec_snow_186.txt.gz
Snowfall_Accumulation
0.0 0.0 0.0 0.0 0.0 0.0 0.0 0.0 0.0 0.0 0.0 0.0 0.0 0.0 0.0 0.0 0.0 0.0 0.0 0.0 0.0 0.0 0.0 0.0 0.0 0.0 0.0 0.0 0.0 0.0 0.0 0.0
0.0 0.0 0.0 0.0 0.0 0.0 0.0 0.0 0.0 0.0 0.0 0.0 0.0 0.0 0.0 0.0 0.0 0.0 0.0 0.0 0.0 0.0 0.0 0.0 0.0 0.0 0.0 0.0 0.0 0.0 0.0 0.0
0.0 0.0 0.0 0.0 0.0 0.0 0.0 0.0 0.0 0.0 0.0 0.0 0.0 0.0 0.0 0.0 0.0 0.0 0.0 0.0 0.0 0.0 0.0 0.0 0.0 0.0 0.0 0.0 0.0 0.0 0.0 0.0
0.0 0.0 0.0 0.0 0.0 0.0 0.0 0.0 0.0 0.0 0.0 0.0 0.0 0.0 0.0 0.0 0.0 0.0 0.0 0.0 0.0 0.0 0.0 0.0 0.0 0.0 0.0 0.0 0.0 0.0 0.0 0.0
0.0 0.0 0.0 0.0 0.0 0.0 0.0 0.0 0.0 0.0 0.0 0.0 0.0 0.0 0.0 0.0 0.0 0.0 0.0 0.0 0.0 0.0 0.0 0.0 0.0 0.0 0.0 0.0 0.0 0.0 0.0 0.0
0.0 0.0 0.0 0.0 0.0 0.0 0.0 0.0 0.0 0.0 0.0 0.0 0.0 0.1 0.0 0.0 0.0 0.0 0.0 0.0 0.0 0.0 0.0 0.0 0.0 0.0 0.0 0.0 0.0 0.0 0.0 0.0
0.0 0.0 0.0 0.0 0.0 0.0 0.0 0.0 0.0 0.0 0.0 0.0 0.0 0.0 0.0 0.0 0.0 0.0 0.0 0.0 0.0 0.0 0.0 0.0 0.0 0.0 0.1 0.0 0.0 0.1 0.1 0.0
0.8 0.3 0.4 0.1 0.0 0.0 0.0 0.0 0.0 0.0 0.0 0.0 0.1 0.0 0.0 0.0 0.1 0.1 0.1 0.0 0.1 0.0 0.0 0.0 0.0 0.0 0.0 0.1 0.1 0.1 0.2 0.2
1.1 1.3 0.6 0.9 1.1 0.4 0.1 0.5 0.2 0.0 0.0 0.0 0.2 0.1 0.0 0.1 0.0 0.2 0.3 0.3 0.2 0.1 0.1 0.0 0.0 0.0 0.1 0.0 0.1 0.1 0.1 0.1
1.9 1.7 1.8 2.5 2.1 0.8 1.5 2.2 3.5 1.2 1.0 0.0 0.1 0.3 0.3 0.2 0.2 0.1 0.3 0.2 0.3 0.2 0.1 0.1 0.0 0.0 0.0 0.0 0.1 0.0 0.0 0.1
3.1 2.5 3.2 3.1 3.7 2.6 2.4 2.7 8.0 3.4 1.9 1.0 0.6 0.7 0.5 0.7 0.4 0.3 0.3 0.2 0.1 0.1 0.1 0.1 0.1 0.0 0.0 0.0 0.0 0.0 0.0 0.1
8.1 4.4 4.4 5.9 6.8 3.1 3.9 6.7 14.5 8.9 6.5 5.8 2.2 2.7 0.8 0.8 1.1 1.6 0.9 1.4 0.3 0.2 0.1 0.3 0.4 0.3 0.1 0.1 0.1 0.2 0.0 0.1
11.9 9.4 6.5 7.6 4.0 4.3 4.1 4.2 5.1 15.2 13.4 11.2 9.8 9.1 11.4 6.2 6.5 4.5 5.8 6.1 2.8 2.6 2.5 1.8 1.5 0.7 1.4 0.3 0.4 1.6 1.7 0.4
8.1 7.7 8.1 9.7 5.6 6.0 5.6 6.2 4.4 5.4 7.4 11.8 8.0 7.5 10.3 14.3 11.5 10.1 7.9 7.9 7.6 7.4 6.6 5.4 4.6 5.0 4.8 7.4 3.6 1.7 2.0 3.2
2.9 4.9 5.8 8.6 8.7 5.6 6.0 6.8 6.0 3.5 4.3 4.1 9.1 10.2 1.7 5.2 10.4 7.7 5.6 5.7 7.9 10.2 13.3 14.1 12.0 7.3 7.9 6.9 6.3 7.2 3.7 5.4
0.3 0.0 0.0 2.1 4.1 3.7 3.7 1.6 2.3 3.4 3.4 2.8 2.2 3.5 2.4 0.8 0.9 1.9 1.6 1.4 3.1 8.8 9.0 10.4 9.1 6.8 6.6 4.4 2.9 6.3 6.4 5.6
0.1 0.0 0.0 0.1 0.2 0.5 0.7 0.8 0.3 0.1 0.4 0.9 0.9 0.6 0.6 0.7 0.3 0.3 0.1 0.0 0.0 0.5 0.5 0.5 3.3 2.7 1.9 0.8 0.5 1.7 3.0 2.4
4.2 8.0 1.8 3.2 0.2 0.1 0.0 0.0 0.0 0.1 0.1 0.0 0.0 0.2 0.1 0.1 0.1 0.0 0.1 0.2 0.0 0.0 0.0 0.0 0.0 0.1 0.3 0.2 0.0 0.2 0.4 0.9
2.8 5.8 6.9 3.6 4.3 0.0 0.0 0.0 0.0 0.0 0.0 0.0 0.2 0.0 0.0 0.0 0.0 0.0 0.0 0.0 0.0 0.0 0.0 0.0 0.0 0.0 0.0 0.0 0.1 0.0 0.0 0.0

GFSFLT1_prec_snow_189.txt.gz
Snowfall_Accumulation
0.0 0.0 0.0 0.0 0.0 0.0 0.0 0.0 0.0 0.0 0.0 0.0 0.0 0.0 0.0 0.0 0.0 0.0 0.0 0.0 0.0 0.0 0.0 0.0 0.0 0.0 0.0 0.0 0.0 0.0 0.0 0.0
0.0 0.0 0.0 0.0 0.0 0.0 0.0 0.0 0.0 0.0 0.0 0.0 0.0 0.0 0.0 0.0 0.0 0.0 0.0 0.0 0.0 0.0 0.0 0.0 0.0 0.0 0.0 0.0 0.0 0.0 0.0 0.0
0.0 0.0 0.0 0.0 0.0 0.0 0.0 0.0 0.0 0.0 0.0 0.0 0.0 0.0 0.0 0.0 0.0 0.0 0.0 0.0 0.0 0.0 0.0 0.0 0.0 0.0 0.0 0.0 0.0 0.0 0.0 0.0
0.0 0.0 0.0 0.0 0.0 0.0 0.0 0.0 0.0 0.0 0.0 0.0 0.0 0.0 0.0 0.0 0.0 0.0 0.0 0.0 0.0 0.0 0.0 0.0 0.0 0.0 0.0 0.0 0.0 0.0 0.0 0.0
0.0 0.0 0.0 0.0 0.0 0.0 0.0 0.0 0.0 0.0 0.0 0.0 0.0 0.0 0.0 0.0 0.0 0.0 0.0 0.0 0.0 0.0 0.0 0.0 0.0 0.0 0.0 0.0 0.0 0.0 0.0 0.0
0.0 0.0 0.0 0.0 0.0 0.0 0.0 0.0 0.0 0.0 0.0 0.0 0.0 0.1 0.0 0.0 0.0 0.0 0.0 0.0 0.0 0.0 0.0 0.0 0.0 0.0 0.0 0.0 0.0 0.0 0.0 0.0
0.0 0.0 0.0 0.0 0.0 0.0 0.0 0.0 0.0 0.0 0.0 0.0 0.0 0.0 0.0 0.0 0.0 0.0 0.0 0.0 0.0 0.0 0.0 0.0 0.0 0.0 0.1 0.0 0.0 0.1 0.1 0.0
0.8 0.3 0.4 0.1 0.0 0.0 0.0 0.0 0.0 0.0 0.0 0.0 0.1 0.0 0.0 0.0 0.1 0.1 0.1 0.0 0.1 0.0 0.0 0.0 0.0 0.0 0.0 0.1 0.1 0.1 0.2 0.2
1.1 1.3 0.6 0.9 1.1 0.4 0.1 0.5 0.2 0.0 0.0 0.0 0.2 0.1 0.0 0.1 0.0 0.2 0.3 0.3 0.2 0.1 0.1 0.0 0.0 0.0 0.1 0.0 0.1 0.1 0.1 0.1
1.9 1.7 1.8 2.5 2.1 0.8 1.5 2.2 3.5 1.2 1.0 0.0 0.1 0.3 0.3 0.2 0.2 0.1 0.3 0.2 0.3 0.2 0.1 0.1 0.0 0.0 0.0 0.0 0.1 0.0 0.0 0.1
3.1 2.5 3.2 3.1 3.7 2.6 2.4 2.7 8.0 3.4 1.9 1.0 0.6 0.7 0.5 0.7 0.4 0.3 0.3 0.2 0.1 0.1 0.1 0.1 0.1 0.0 0.0 0.0 0.0 0.0 0.0 0.1
8.1 4.4 4.4 5.9 6.8 3.1 3.9 6.7 14.5 8.9 6.5 5.8 2.2 2.7 0.8 0.8 1.1 1.6 0.9 1.4 0.3 0.2 0.1 0.3 0.4 0.3 0.1 0.1 0.1 0.2 0.0 0.1
11.9 9.4 6.5 7.6 4.0 4.3 4.1 4.2 5.1 15.2 13.4 11.2 9.8 9.1 11.4 6.2 6.5 4.5 5.8 6.1 2.8 2.6 2.5 1.8 1.5 0.7 1.4 0.3 0.4 1.6 1.7 0.4
8.1 7.7 8.1 9.7 5.6 6.0 5.6 6.2 4.4 5.4 7.4 11.8 8.0 7.5 10.3 14.3 11.5 10.1 7.9 7.9 7.6 7.4 6.6 5.4 4.6 5.0 4.8 7.4 3.6 1.7 2.0 3.2
2.9 4.9 5.8 8.6 8.7 5.6 6.0 6.8 6.0 3.5 4.3 4.1 9.1 10.2 1.7 5.2 10.4 7.7 5.6 5.7 7.9 10.2 13.3 14.1 12.0 7.3 7.9 6.9 6.3 7.2 3.7 5.4
0.3 0.0 0.0 2.1 4.1 3.7 3.7 1.6 2.3 3.4 3.4 2.8 2.2 3.5 2.4 0.8 0.9 1.9 1.6 1.4 3.1 8.8 9.0 10.4 9.1 6.8 6.6 4.4 2.9 6.3 6.4 5.6
0.1 0.0 0.0 0.1 0.2 0.5 0.7 0.8 0.3 0.1 0.4 0.9 0.9 0.6 0.6 0.7 0.3 0.4 0.1 0.0 0.0 0.5 0.5 0.5 3.3 2.7 1.9 0.8 0.5 1.7 3.0 2.4
4.2 8.0 1.8 3.2 0.2 0.1 0.0 0.0 0.0 0.1 0.1 0.0 0.0 0.2 0.1 0.1 0.1 0.0 0.8 0.2 0.0 0.0 0.0 0.0 0.0 0.1 0.3 0.2 0.0 0.2 0.4 0.9
2.8 5.8 6.9 3.6 4.3 0.0 0.0 0.0 0.0 0.0 0.0 0.0 0.2 0.0 0.0 0.0 0.0 0.2 0.2 0.1 0.1 0.0 0.0 0.0 0.0 0.0 0.0 0.0 0.1 0.0 0.0 0.0

GFSFLT1_prec_snow_192.txt.gz
Snowfall_Accumulation
0.0 0.0 0.0 0.0 0.0 0.0 0.0 0.0 0.0 0.0 0.0 0.0 0.0 0.0 0.0 0.0 0.0 0.0 0.0 0.0 0.0 0.0 0.0 0.0 0.0 0.0 0.0 0.0 0.0 0.0 0.0 0.0
0.0 0.0 0.0 0.0 0.0 0.0 0.0 0.0 0.0 0.0 0.0 0.0 0.0 0.0 0.0 0.0 0.0 0.0 0.0 0.0 0.0 0.0 0.0 0.0 0.0 0.0 0.0 0.0 0.0 0.0 0.0 0.0
0.0 0.0 0.0 0.0 0.0 0.0 0.0 0.0 0.0 0.0 0.0 0.0 0.0 0.0 0.0 0.0 0.0 0.0 0.0 0.0 0.0 0.0 0.0 0.0 0.0 0.0 0.0 0.0 0.0 0.0 0.0 0.0
0.0 0.0 0.0 0.0 0.0 0.0 0.0 0.0 0.0 0.0 0.0 0.0 0.0 0.0 0.0 0.0 0.0 0.0 0.0 0.0 0.0 0.0 0.0 0.0 0.0 0.0 0.0 0.0 0.0 0.0 0.0 0.0
0.0 0.0 0.0 0.0 0.0 0.0 0.0 0.0 0.0 0.0 0.0 0.0 0.0 0.0 0.0 0.0 0.0 0.0 0.0 0.0 0.0 0.0 0.0 0.0 0.0 0.0 0.0 0.0 0.0 0.0 0.0 0.0
0.0 0.0 0.0 0.0 0.0 0.0 0.0 0.0 0.0 0.0 0.0 0.0 0.0 0.1 0.0 0.0 0.0 0.0 0.0 0.0 0.0 0.0 0.0 0.0 0.0 0.0 0.0 0.0 0.0 0.0 0.0 0.0
0.0 0.0 0.0 0.0 0.0 0.0 0.0 0.0 0.0 0.0 0.0 0.0 0.0 0.0 0.0 0.0 0.0 0.0 0.0 0.0 0.0 0.0 0.0 0.0 0.0 0.0 0.1 0.0 0.0 0.1 0.1 0.0
0.8 0.3 0.4 0.1 0.0 0.0 0.0 0.0 0.0 0.0 0.0 0.0 0.1 0.0 0.0 0.0 0.1 0.1 0.1 0.0 0.1 0.0 0.0 0.0 0.0 0.0 0.0 0.1 0.1 0.1 0.2 0.2
1.1 1.3 0.6 0.9 1.1 0.4 0.1 0.5 0.2 0.0 0.0 0.0 0.2 0.1 0.0 0.1 0.0 0.2 0.3 0.3 0.2 0.1 0.1 0.0 0.0 0.0 0.1 0.0 0.1 0.1 0.1 0.1
1.9 1.7 1.8 2.5 2.1 0.8 1.5 2.2 3.5 1.2 1.0 0.0 0.1 0.3 0.3 0.2 0.2 0.1 0.3 0.2 0.3 0.2 0.1 0.1 0.0 0.0 0.0 0.0 0.1 0.0 0.0 0.1
3.1 2.5 3.2 3.1 3.7 2.6 2.4 2.7 8.0 3.4 1.9 1.0 0.6 0.7 0.5 0.7 0.4 0.3 0.3 0.2 0.1 0.1 0.1 0.1 0.1 0.0 0.0 0.0 0.0 0.0 0.0 0.1
8.1 4.4 4.4 5.9 6.8 3.1 3.9 6.7 14.5 8.9 6.5 5.8 2.2 2.7 0.8 0.8 1.1 1.6 0.9 1.4 0.3 0.2 0.1 0.3 0.4 0.3 0.1 0.1 0.1 0.2 0.0 0.1
11.9 9.4 6.5 7.6 4.0 4.3 4.1 4.2 5.1 15.2 13.4 11.2 9.8 9.1 11.4 6.2 6.5 4.5 5.8 6.1 2.8 2.6 2.5 1.8 1.5 0.7 1.4 0.3 0.4 1.6 1.7 0.4
8.1 7.7 8.1 9.7 5.6 6.0 5.6 6.2 4.4 5.4 7.4 11.8 8.0 7.5 10.3 14.3 11.5 10.1 7.9 7.9 7.6 7.4 6.6 5.4 4.6 5.0 4.8 7.4 3.6 1.7 2.0 3.2
2.9 4.9 5.8 8.6 8.7 5.6 6.0 6.8 6.0 3.5 4.3 4.1 9.1 10.2 1.7 5.2 10.4 7.7 5.6 5.7 7.9 10.2 13.3 14.1 12.0 7.3 7.9 6.9 6.3 7.2 3.7 5.4
0.3 0.0 0.0 2.1 4.1 3.7 3.7 1.6 2.3 3.4 3.4 2.8 2.2 3.5 2.4 0.8 0.9 1.9 1.6 1.4 3.1 8.8 9.0 10.4 9.1 6.8 6.6 4.4 2.9 6.3 6.4 5.6
0.1 0.0 0.0 0.1 0.2 0.5 0.7 0.8 0.3 0.1 0.4 0.9 0.9 0.6 0.6 0.7 0.3 0.4 0.1 0.0 0.0 0.5 0.5 0.5 3.3 2.7 1.9 0.8 0.5 1.7 3.0 2.4
4.2 8.0 1.8 3.2 0.2 0.1 0.0 0.0 0.0 0.1 0.1 0.0 0.0 0.2 0.1 0.1 0.1 0.0 0.9 0.5 0.0 0.1 0.0 0.0 0.0 0.1 0.3 0.2 0.0 0.2 0.4 0.9
2.8 5.8 6.9 3.6 4.3 0.0 0.0 0.0 0.0 0.0 0.0 0.0 0.2 0.0 0.0 0.0 0.0 0.2 0.2 0.6 0.1 0.0 0.8 0.4 0.1 0.0 0.0 0.0 0.1 0.0 0.0 0.0

GFSFLT1_prec_snow_195.txt.gz
Snowfall_Accumulation
0.0 0.0 0.0 0.0 0.0 0.0 0.0 0.0 0.0 0.0 0.0 0.0 0.0 0.0 0.0 0.0 0.0 0.0 0.0 0.0 0.0 0.0 0.0 0.0 0.0 0.0 0.0 0.0 0.0 0.0 0.0 0.0
0.0 0.0 0.0 0.0 0.0 0.0 0.0 0.0 0.0 0.0 0.0 0.0 0.0 0.0 0.0 0.0 0.0 0.0 0.0 0.0 0.0 0.0 0.0 0.0 0.0 0.0 0.0 0.0 0.0 0.0 0.0 0.0
0.0 0.0 0.0 0.0 0.0 0.0 0.0 0.0 0.0 0.0 0.0 0.0 0.0 0.0 0.0 0.0 0.0 0.0 0.0 0.0 0.0 0.0 0.0 0.0 0.0 0.0 0.0 0.0 0.0 0.0 0.0 0.0
0.0 0.0 0.0 0.0 0.0 0.0 0.0 0.0 0.0 0.0 0.0 0.0 0.0 0.0 0.0 0.0 0.0 0.0 0.0 0.0 0.0 0.0 0.0 0.0 0.0 0.0 0.0 0.0 0.0 0.0 0.0 0.0
0.0 0.0 0.0 0.0 0.0 0.0 0.0 0.0 0.0 0.0 0.0 0.0 0.0 0.0 0.0 0.0 0.0 0.0 0.0 0.0 0.0 0.0 0.0 0.0 0.0 0.0 0.0 0.0 0.0 0.0 0.0 0.0
0.0 0.0 0.0 0.0 0.0 0.0 0.0 0.0 0.0 0.0 0.0 0.0 0.0 0.1 0.0 0.0 0.0 0.0 0.0 0.0 0.0 0.0 0.0 0.0 0.0 0.0 0.0 0.0 0.0 0.0 0.0 0.0
0.0 0.0 0.0 0.0 0.0 0.0 0.0 0.0 0.0 0.0 0.0 0.0 0.0 0.0 0.0 0.0 0.0 0.0 0.0 0.0 0.0 0.0 0.0 0.0 0.0 0.0 0.1 0.0 0.0 0.1 0.1 0.0
0.8 0.3 0.4 0.1 0.0 0.0 0.0 0.0 0.0 0.0 0.0 0.0 0.1 0.0 0.0 0.0 0.1 0.1 0.1 0.0 0.1 0.0 0.0 0.0 0.0 0.0 0.0 0.1 0.1 0.1 0.2 0.2
1.1 1.3 0.6 0.9 1.1 0.4 0.1 0.5 0.2 0.0 0.0 0.0 0.2 0.1 0.0 0.1 0.0 0.2 0.3 0.3 0.2 0.1 0.1 0.0 0.0 0.0 0.1 0.0 0.1 0.1 0.1 0.1
1.9 1.7 1.8 2.5 2.1 0.8 1.5 2.2 3.5 1.2 1.0 0.0 0.1 0.3 0.3 0.2 0.2 0.1 0.3 0.2 0.3 0.2 0.1 0.1 0.0 0.0 0.0 0.0 0.1 0.0 0.0 0.1
3.1 2.5 3.2 3.1 3.7 2.6 2.4 2.7 8.0 3.4 1.9 1.0 0.6 0.7 0.5 0.7 0.4 0.3 0.3 0.2 0.1 0.1 0.1 0.1 0.1 0.0 0.0 0.0 0.0 0.0 0.0 0.1
8.1 4.4 4.4 5.9 6.8 3.1 3.9 6.7 14.5 8.9 6.5 5.8 2.2 2.7 0.8 0.8 1.1 1.6 0.9 1.4 0.3 0.2 0.1 0.3 0.4 0.3 0.1 0.1 0.1 0.2 0.0 0.1
11.9 9.4 6.5 7.6 4.0 4.3 4.1 4.2 5.1 15.2 13.4 11.2 9.8 9.1 11.4 6.2 6.5 4.5 5.8 6.1 2.8 2.6 2.5 1.8 1.5 0.7 1.4 0.3 0.4 1.6 1.7 0.4
8.1 7.7 8.1 9.7 5.6 6.0 5.6 6.2 4.4 5.4 7.4 11.8 8.0 7.5 10.3 14.3 11.5 10.1 7.9 7.9 7.6 7.4 6.6 5.4 4.6 5.0 4.8 7.4 3.6 1.7 2.0 3.2
2.9 4.9 5.8 8.6 8.7 5.6 6.0 6.8 6.0 3.5 4.3 4.1 9.1 10.2 1.7 5.2 10.4 7.7 5.6 5.7 7.9 10.2 13.3 14.1 12.0 7.3 7.9 6.9 6.3 7.2 3.7 5.4
0.3 0.0 0.0 2.1 4.1 3.7 3.7 1.6 2.3 3.4 3.4 2.8 2.2 3.5 2.4 0.8 0.9 1.9 1.6 1.4 3.1 8.8 9.0 10.4 9.1 6.8 6.6 4.4 2.9 6.3 6.4 5.6
0.1 0.0 0.0 0.1 0.2 0.5 0.7 0.8 0.3 0.1 0.4 0.9 0.9 0.6 0.6 0.7 0.3 0.4 0.1 0.0 0.0 0.5 0.5 0.5 3.3 2.7 1.9 0.8 0.5 1.7 3.0 2.4
4.2 8.0 1.8 3.2 0.2 0.1 0.0 0.0 0.0 0.1 0.1 0.0 0.0 0.2 0.1 0.1 0.1 0.0 0.9 0.5 0.0 0.1 0.0 0.0 0.0 0.1 0.3 0.2 0.0 0.2 0.4 0.9
2.8 5.8 6.9 3.6 4.3 0.0 0.0 0.0 0.0 0.0 0.0 0.0 0.2 0.0 0.0 0.0 0.0 0.2 0.2 0.6 0.3 0.2 1.0 0.7 0.5 0.3 0.1 0.0 0.1 0.0 0.0 0.0

GFSFLT1_prec_snow_201.txt.gz
Snowfall_Accumulation
0.0 0.0 0.0 0.0 0.0 0.0 0.0 0.0 0.0 0.0 0.0 0.0 0.0 0.0 0.0 0.0 0.0 0.0 0.0 0.0 0.0 0.0 0.0 0.0 0.0 0.0 0.0 0.0 0.0 0.0 0.0 0.0
0.0 0.0 0.0 0.0 0.0 0.0 0.0 0.0 0.0 0.0 0.0 0.0 0.0 0.0 0.0 0.0 0.0 0.0 0.0 0.0 0.0 0.0 0.0 0.0 0.0 0.0 0.0 0.0 0.0 0.0 0.0 0.0
0.0 0.0 0.0 0.0 0.0 0.0 0.0 0.0 0.0 0.0 0.0 0.0 0.0 0.0 0.0 0.0 0.0 0.0 0.0 0.0 0.0 0.0 0.0 0.0 0.0 0.0 0.0 0.0 0.0 0.0 0.0 0.0
0.0 0.0 0.0 0.0 0.0 0.0 0.0 0.0 0.0 0.0 0.0 0.0 0.0 0.0 0.0 0.0 0.0 0.0 0.0 0.0 0.0 0.0 0.0 0.0 0.0 0.0 0.0 0.0 0.0 0.0 0.0 0.0
0.0 0.0 0.0 0.0 0.0 0.0 0.0 0.0 0.0 0.0 0.0 0.0 0.0 0.0 0.0 0.0 0.0 0.0 0.0 0.0 0.0 0.0 0.0 0.0 0.0 0.0 0.0 0.0 0.0 0.0 0.0 0.0
0.0 0.0 0.0 0.0 0.0 0.0 0.0 0.0 0.0 0.0 0.0 0.0 0.0 0.1 0.0 0.0 0.0 0.0 0.0 0.0 0.0 0.0 0.0 0.0 0.0 0.0 0.0 0.0 0.0 0.0 0.0 0.0
0.0 0.0 0.0 0.0 0.0 0.0 0.0 0.0 0.0 0.0 0.0 0.0 0.0 0.0 0.0 0.0 0.0 0.0 0.0 0.0 0.0 0.0 0.0 0.0 0.0 0.0 0.1 0.0 0.0 0.1 0.1 0.0
0.8 0.3 0.4 0.1 0.0 0.0 0.0 0.0 0.0 0.0 0.0 0.0 0.1 0.0 0.0 0.0 0.1 0.1 0.1 0.0 0.1 0.0 0.0 0.0 0.0 0.0 0.0 0.1 0.1 0.1 0.2 0.2
1.1 1.3 0.6 0.9 1.1 0.4 0.1 0.5 0.2 0.0 0.0 0.0 0.2 0.1 0.0 0.1 0.0 0.2 0.3 0.3 0.2 0.1 0.1 0.0 0.0 0.0 0.1 0.0 0.1 0.1 0.1 0.1
1.9 1.7 1.8 2.5 2.1 0.8 1.5 2.2 3.5 1.2 1.0 0.0 0.1 0.3 0.3 0.2 0.2 0.1 0.3 0.2 0.3 0.2 0.1 0.1 0.0 0.0 0.0 0.0 0.1 0.0 0.0 0.1
3.1 2.5 3.2 3.1 3.7 2.6 2.4 2.7 8.0 3.4 1.9 1.0 0.6 0.7 0.5 0.7 0.4 0.3 0.3 0.2 0.1 0.1 0.1 0.1 0.1 0.0 0.0 0.0 0.0 0.0 0.0 0.1
8.1 4.4 4.4 5.9 6.8 3.1 3.9 6.7 14.5 8.9 6.5 5.8 2.2 2.7 0.8 0.8 1.1 1.6 0.9 1.4 0.3 0.2 0.1 0.3 0.4 0.3 0.1 0.1 0.1 0.2 0.0 0.1
11.9 9.4 6.5 7.6 4.0 4.3 4.1 4.2 5.1 15.2 13.4 11.2 9.8 9.1 11.4 6.2 6.5 4.5 5.8 6.1 2.8 2.6 2.5 1.8 1.5 0.7 1.4 0.3 0.4 1.6 1.7 0.4
8.1 7.7 8.1 9.7 5.6 6.0 5.6 6.2 4.4 5.4 7.4 11.8 8.0 7.5 10.3 14.3 11.5 10.1 7.9 7.9 7.6 7.4 6.6 5.4 4.6 5.0 4.8 7.4 3.6 1.7 2.0 3.2
2.9 4.9 5.8 8.6 8.7 5.6 6.0 6.8 6.0 3.5 4.3 4.1 9.1 10.2 1.7 5.2 10.4 7.7 5.6 5.7 7.9 10.2 13.3 14.1 12.0 7.3 7.9 6.9 6.3 7.2 3.7 5.4
0.3 0.0 0.0 2.1 4.1 3.7 3.7 1.6 2.3 3.4 3.4 2.8 2.2 3.5 2.4 0.8 0.9 1.9 1.6 1.4 3.1 8.8 9.0 10.4 9.1 6.8 6.6 4.4 2.9 6.3 6.4 5.6
0.1 0.0 0.0 0.1 0.2 0.5 0.7 0.8 0.3 0.1 0.4 0.9 0.9 0.6 0.6 0.7 0.3 2.9 0.1 0.0 0.0 0.5 1.8 0.5 3.3 2.7 1.9 0.8 0.5 1.7 3.0 2.4
4.2 8.0 1.8 3.2 0.2 0.1 0.0 0.0 0.0 0.1 0.1 0.0 0.0 2.9 4.1 3.9 3.2 2.7 2.8 1.7 0.8 0.7 0.6 0.3 0.1 0.1 0.3 0.2 0.0 0.2 0.4 0.9
2.8 5.8 6.9 3.6 4.3 0.0 0.0 0.0 0.0 0.0 0.0 0.0 2.8 3.1 3.4 3.2 3.0 2.0 1.3 1.3 0.3 0.2 1.2 0.7 0.5 0.3 0.1 0.0 0.1 0.0 0.0 0.0

GFSFLT1_prec_snow_207.txt.gz
Snowfall_Accumulation
0.0 0.0 0.0 0.0 0.0 0.0 0.0 0.0 0.0 0.0 0.0 0.0 0.0 0.0 0.0 0.0 0.0 0.0 0.0 0.0 0.0 0.0 0.0 0.0 0.0 0.0 0.0 0.0 0.0 0.0 0.0 0.0
0.0 0.0 0.0 0.0 0.0 0.0 0.0 0.0 0.0 0.0 0.0 0.0 0.0 0.0 0.0 0.0 0.0 0.0 0.0 0.0 0.0 0.0 0.0 0.0 0.0 0.0 0.0 0.0 0.0 0.0 0.0 0.0
0.0 0.0 0.0 0.0 0.0 0.0 0.0 0.0 0.0 0.0 0.0 0.0 0.0 0.0 0.0 0.0 0.0 0.0 0.0 0.0 0.0 0.0 0.0 0.0 0.0 0.0 0.0 0.0 0.0 0.0 0.0 0.0
0.0 0.0 0.0 0.0 0.0 0.0 0.0 0.0 0.0 0.0 0.0 0.0 0.0 0.0 0.0 0.0 0.0 0.0 0.0 0.0 0.0 0.0 0.0 0.0 0.0 0.0 0.0 0.0 0.0 0.0 0.0 0.0
0.0 0.0 0.0 0.0 0.0 0.0 0.0 0.0 0.0 0.0 0.0 0.0 0.0 0.0 0.0 0.0 0.0 0.0 0.0 0.0 0.0 0.0 0.0 0.0 0.0 0.0 0.0 0.0 0.0 0.0 0.0 0.0
0.0 0.0 0.0 0.0 0.0 0.0 0.0 0.0 0.0 0.0 0.0 0.0 0.0 0.1 0.0 0.0 0.0 0.0 0.0 0.0 0.0 0.0 0.0 0.0 0.0 0.0 0.0 0.0 0.0 0.0 0.0 0.0
0.0 0.0 0.0 0.0 0.0 0.0 0.0 0.0 0.0 0.0 0.0 0.0 0.0 0.0 0.0 0.0 0.0 0.0 0.0 0.0 0.0 0.0 0.0 0.0 0.0 0.0 0.1 0.0 0.0 0.1 0.1 0.0
0.8 0.3 0.4 0.1 0.0 0.0 0.0 0.0 0.0 0.0 0.0 0.0 0.1 0.0 0.0 0.0 0.1 0.1 0.1 0.0 0.1 0.0 0.0 0.0 0.0 0.0 0.0 0.1 0.1 0.1 0.2 0.2
1.1 1.3 0.6 0.9 1.1 0.4 0.1 0.5 0.2 0.0 0.0 0.0 0.2 0.1 0.0 0.1 0.0 0.2 0.3 0.3 0.2 0.1 0.1 0.0 0.0 0.0 0.1 0.0 0.1 0.1 0.1 0.1
1.9 1.7 1.8 2.5 2.1 0.8 1.5 2.2 3.5 1.2 1.0 0.0 0.1 0.3 0.3 0.2 0.2 0.1 0.3 0.2 0.3 0.2 0.1 0.1 0.0 0.0 0.0 0.0 0.1 0.0 0.0 0.1
3.1 2.5 3.2 3.1 3.7 2.6 2.4 2.7 8.0 3.4 1.9 1.0 0.6 0.7 0.5 0.7 0.4 0.3 0.3 0.2 0.1 0.1 0.1 0.1 0.1 0.0 0.0 0.0 0.0 0.0 0.0 0.1
8.1 4.4 4.4 5.9 6.8 3.1 3.9 6.7 14.5 8.9 6.5 5.8 2.2 2.7 0.8 0.8 1.1 1.6 0.9 1.4 0.3 0.2 0.1 0.3 0.4 0.3 0.1 0.1 0.1 0.2 0.0 0.1
11.9 9.4 6.5 7.6 4.0 4.3 4.1 4.2 5.1 15.2 13.4 11.2 9.8 9.1 11.4 6.2 6.5 4.5 5.8 6.1 2.8 2.6 2.5 1.8 1.5 0.7 1.4 0.3 0.4 1.6 1.7 0.4
8.1 7.7 8.1 9.7 5.6 6.0 5.6 6.2 4.4 5.4 7.4 11.8 8.0 7.5 10.3 14.3 11.5 10.1 7.9 7.9 7.6 7.4 6.6 5.4 4.6 5.0 4.8 7.4 3.6 1.7 2.0 3.2
2.9 4.9 5.8 8.6 8.7 5.6 6.0 6.8 6.0 3.5 4.3 4.1 9.1 10.2 1.7 5.2 10.4 7.7 5.6 5.7 7.9 10.2 13.3 14.1 12.0 7.3 7.9 6.9 6.3 7.2 3.7 5.4
0.3 0.0 0.0 2.1 4.1 3.7 3.7 1.6 2.3 3.4 3.4 2.8 2.2 3.5 2.4 0.8 0.9 1.9 1.6 1.4 3.1 8.8 9.0 10.4 9.1 6.8 6.6 4.4 2.9 6.3 6.4 5.6
0.1 0.0 0.0 0.1 0.2 0.5 0.7 0.8 0.3 0.1 0.4 0.9 0.9 0.6 0.6 0.7 0.3 2.9 0.1 0.0 0.0 0.5 1.8 0.5 3.3 2.7 1.9 0.8 0.5 1.7 3.0 2.4
4.2 8.0 1.8 3.2 0.2 0.1 0.0 0.0 0.0 0.1 0.1 0.0 0.0 2.9 4.1 3.9 3.2 2.7 4.9 1.7 2.0 0.7 0.6 0.3 0.1 0.1 0.3 0.2 0.0 0.2 0.4 0.9
2.8 5.8 6.9 3.6 4.3 0.0 0.0 0.0 0.0 0.0 0.0 0.0 2.8 3.6 4.2 4.2 4.6 4.2 3.9 3.7 2.1 1.9 4.7 2.3 2.6 0.3 0.1 0.0 0.1 0.0 0.0 0.0